Location: Dammartin
(48.9032°N, 1.6195°E)
Time: 22:43:36
(UTC+00:00)

YUBILEINY - Pass Details

Date: 15 December 2023
Orbit: 1479 x 1508 km, 82.5° (Epoch: 04 March)

Event Time Altitude Azimuth Distance (km) Brightness Sun altitude
Rises 17:02:52 0° 351° (N) 4,625 ? -10.3°
Reaches altitude 10° 17:06:41 10° 6° (N) 3,638 ? -10.8°
Maximum altitude 17:13:15 23° 56° (NE) 2,758 ? -11.8°
Drops below altitude 10° 17:19:46 10° 105° (ESE) 3,618 ? -12.8°
Sets 17:23:30 0° 120° (ESE) 4,593 ? -13.4°
